Station PSBC1 - 9415115 - Pittsburg (Suisun Bay), CA Image indicating link to RSS feed of recent meteorological observations for station PSBC1


Conditions at PSBC1 as of
(11:30 pm PDT on 06/12/2024)
0630 GMT on 06/13/2024:
     

Click on the graph icon in the table below to see a time series plot of the last five days of that observation.

5-day plot - Wind Direction Wind Direction (WDIR): NW ( 310 deg true )
5-day plot - Wind Speed Wind Speed (WSPD): 17.1 kts
5-day plot - Wind Gust Wind Gust (GST): 21.0 kts
5-day plot - Atmospheric Pressure Atmospheric Pressure (PRES):29.81 in
5-day plot - Air Temperature Air Temperature (ATMP): 62.4 °F
5-day plot - Wind Speed at 10 Meters Wind Speed at 10 meters (WSPD10M): 17.5 kts
5-day plot - Wind Speed at 20 Meters Wind Speed at 20 meters (WSPD20M): 19.4 kts
5-day plot -  Wind Speed, Wind Gust and Atmospheric Pressure Combined plot of Wind Speed, Gust, and Air Pressure
NOS Water Level Observation Network Water Level
Previous observations
TIME
(PDT)
5-day plot - Wind Direction
WDIR
 
5-day plot - Wind Speed
WSPD
kts
5-day plot - Wind Gust
GST
kts
5-day plot - Wave Height
WVHT
ft
5-day plot - Dominant Wave Period
DPD
sec
5-day plot - Average Wave Period
APD
sec
5-day plot - Mean Wave Direction
MWD
 
5-day plot - Atmospheric Pressure
PRES
in
5-day plot - Pressure Tendency
PTDY
in
5-day plot - Air Temperature
ATMP
°F
5-day plot - Water Temperature
WTMP
°F
5-day plot - Dew Point
DEWP
°F
5-day plot - Salinity
SAL
psu
5-day plot - Visibility
VIS
nmi
5-day plot - Tide (above MLLW)
TIDE
ft
2024-06-12 11:24 pmWNW 17.1 22.9----29.81- 62.4-----
2024-06-12 11:18 pm NW 17.1 25.1----29.81- 62.4-----
2024-06-12 11:12 pmWNW 17.1 22.0----29.81- 62.4-----
2024-06-12 11:06 pmWNW 17.1 22.9----29.81- 63.0-----
2024-06-12 11:00 pmWNW 17.1 21.0----29.81+0.02------
2024-06-12 10:54 pm NW 17.1 21.0----29.81-------
2024-06-12 10:48 pm-------29.81- 61.3-----
2024-06-12 10:42 pm-------29.81- 61.3-----
2024-06-12 10:36 pm-------29.81- 61.5-----
2024-06-12 10:30 pm NW 18.1 22.9----29.81- 61.9-----
2024-06-12 10:24 pm NW 20.0 25.1----29.81- 61.9-----
2024-06-12 10:18 pm NW 19.0 25.1----29.81- 62.6-----
2024-06-12 10:12 pm NW 20.0 25.1----29.81- 62.1-----
2024-06-12 10:06 pm NW 19.0 22.0----29.81- 62.2-----
2024-06-12 10:00 pm-------29.81- 62.4-----
2024-06-12 09:54 pm-------29.81- 63.0-----
2024-06-12 09:48 pm NW 19.0 24.1----29.80- 63.0-----
2024-06-12 09:42 pm NW 19.0 24.1----29.80- 62.4-----
2024-06-12 09:36 pm NW 19.0 25.1----29.80- 62.6-----
2024-06-12 09:30 pm NW 20.0 24.1----29.80- 62.6-----
2024-06-12 09:24 pm NW 19.0 22.9----29.80- 62.6-----
2024-06-12 09:18 pm NW 19.0 22.9----29.80- 63.0-----
2024-06-12 09:12 pm NW 19.0 24.1----29.79- 62.6-----
2024-06-12 09:06 pm NW 19.0 24.1----29.79- 63.1-----
2024-06-12 09:00 pm NW 19.0 22.9----29.79- 62.8-----
2024-06-12 08:54 pm NW 20.0 24.1----29.79- 63.1-----
2024-06-12 08:48 pm NW 20.0 25.1----29.79-------
2024-06-12 08:42 pm NW 20.0 22.9----29.78-------
2024-06-12 08:36 pm NW 19.0 25.1----29.78-------
2024-06-12 08:30 pm NW 20.0 24.1------------
2024-06-12 08:24 pm NW 19.0 25.1------------
2024-06-12 08:18 pm NW 19.0 22.0----29.79-------
2024-06-12 08:12 pm NW 15.9 22.0----29.79-------
2024-06-12 08:06 pmWNW 18.1 22.9----29.79-------
2024-06-12 08:00 pmWNW 18.1 21.0----29.79+0.00 70.5-----
2024-06-12 07:54 pmWNW 15.9 22.0----29.79- 71.2-----
2024-06-12 07:48 pmWNW 17.1 20.0----29.79- 71.8-----
2024-06-12 07:42 pmWNW 17.1 22.9----29.78- 72.1-----
2024-06-12 07:36 pmWNW 15.9 21.0----29.79- 72.5-----
2024-06-12 07:30 pmWNW 18.1 21.0----29.78- 72.9-----
2024-06-12 07:24 pmWNW 15.9 21.0----29.78- 73.4-----
2024-06-12 07:18 pmWNW 15.0 19.0----29.78- 74.1-----
2024-06-12 07:12 pmWNW 15.0 19.0----29.79- 74.5-----
2024-06-12 07:06 pmWNW 14.0 18.1----29.78- 75.2-----
2024-06-12 07:00 pmWNW 15.0 20.0------------
2024-06-12 06:54 pmWNW 15.0 20.0------------
2024-06-12 06:48 pmWNW 15.0 19.0----29.78-------
2024-06-12 06:42 pmWNW 14.0 21.0----29.78-------
2024-06-12 06:36 pmWNW 15.9 21.0----29.78-------
2024-06-12 06:30 pmWNW 14.0 20.0----29.78- 77.4-----
2024-06-12 06:24 pmWNW 17.1 21.0----29.78- 77.2-----
2024-06-12 06:18 pmWNW 14.0 19.0----29.78-------
2024-06-12 06:12 pmWNW 15.0 20.0----29.79-------
2024-06-12 06:06 pmWNW 14.0 21.0----29.78-------
2024-06-12 06:00 pmWNW 15.9 19.0------------
2024-06-12 05:54 pmWNW 14.0 20.0------------
2024-06-12 05:48 pmWNW 15.0 21.0----29.79-------
2024-06-12 05:42 pmWNW 14.0 22.0----29.79-------
2024-06-12 05:36 pmWNW 15.0 21.0----29.79-------
2024-06-12 05:30 pmWNW 15.9 22.9----29.79-------
2024-06-12 05:24 pm W 11.1 18.1----29.79-------
2024-06-12 05:18 pm W 13.0 20.0----29.79- 80.1-----
2024-06-12 05:12 pmWNW 15.0 21.0----29.79- 80.2-----
2024-06-12 05:06 pm W 12.0 21.0----29.80- 80.2-----
2024-06-12 05:00 pmWNW 15.9 22.9----29.79-0.02------
2024-06-12 04:54 pmWNW 19.0 24.1----29.79-------
2024-06-12 04:48 pm W 15.9 22.9----29.80-------
2024-06-12 04:42 pmWNW 15.9 21.0----29.79-------
2024-06-12 04:36 pmWNW 17.1 22.9----29.79-------
2024-06-12 04:30 pmWNW 19.0 22.9----29.79- 80.8-----
2024-06-12 04:24 pmWNW 15.9 22.9----29.79- 81.5-----
2024-06-12 04:18 pmWNW 18.1 22.9----29.79- 81.3-----
2024-06-12 04:12 pmWNW 17.1 22.0----29.80- 81.0-----
2024-06-12 04:00 pm W 15.0 20.0----29.80-0.02------
2024-06-12 03:54 pm W 15.0 21.0----29.80-------
2024-06-12 03:48 pm W 13.0 18.1----29.80-------
2024-06-12 03:42 pm W 14.0 21.0----29.80-------
2024-06-12 03:36 pm W 15.0 21.0----29.80-------
2024-06-12 03:30 pmWNW 14.0 20.0----29.80- 82.9-----
2024-06-12 03:24 pmWNW 15.9 21.0----29.80- 82.6-----
2024-06-12 03:18 pmWNW 15.9 22.0----29.80-------
2024-06-12 03:12 pmWNW 15.9 21.0----29.80-------
2024-06-12 03:06 pmWNW 14.0 21.0----29.80-------
2024-06-12 03:00 pm-------29.80-0.03------
2024-06-12 02:54 pm-------29.80-------
2024-06-12 02:48 pmWNW 15.9 22.9----29.80-------
2024-06-12 02:42 pmWNW 18.1 21.0----29.80-------
2024-06-12 02:36 pmWNW 15.9 21.0----29.80-------
2024-06-12 02:30 pm-------29.80- 77.0-----
2024-06-12 02:24 pm-------29.81- 76.1-----
2024-06-12 02:18 pm NW 15.9 21.0----29.80- 75.9-----
2024-06-12 02:12 pmWNW 14.0 19.0----29.81- 75.4-----
2024-06-12 02:06 pm NW 15.0 20.0----29.81- 75.0-----
2024-06-12 02:00 pm NW 15.9 22.0----29.81-0.01------
2024-06-12 01:54 pm NW 15.9 21.0----29.81-------
2024-06-12 01:48 pm NW 14.0 19.0----29.81-------
2024-06-12 01:42 pm NW 15.0 20.0----29.81-------
2024-06-12 01:36 pm NW 15.0 19.0----29.81-------
2024-06-12 01:30 pm NW 15.0 20.0----29.81- 75.2-----
2024-06-12 01:24 pm NW 15.0 20.0----29.81- 75.0-----
2024-06-12 01:18 pm NW 15.9 21.0----29.81- 75.0-----
2024-06-12 01:12 pm NW 15.9 21.0----29.82- 74.7-----
2024-06-12 01:06 pm NW 15.0 20.0----29.82- 74.8-----
2024-06-12 01:00 pm NW 15.0 19.0----29.82+0.00------
2024-06-12 12:54 pm NW 14.0 19.0----29.83-------
2024-06-12 12:48 pm NW 13.0 18.1----29.83-------
2024-06-12 12:42 pm NW 15.0 19.0----29.83-------
2024-06-12 12:36 pm NW 15.0 20.0----29.83-------
2024-06-12 12:30 pm NW 14.0 19.0----29.83- 74.3-----
2024-06-12 12:24 pm NW 14.0 19.0----29.83- 73.8-----
2024-06-12 12:18 pm NW 14.0 20.0----29.83- 73.0-----
2024-06-12 12:12 pm NW 15.9 20.0----29.83- 73.0-----
2024-06-12 12:06 pm NW 15.0 20.0----29.83- 73.0-----
2024-06-12 12:00 pm NW 15.0 20.0----29.83+0.02 73.0-----
2024-06-12 11:54 am NW 15.0 19.0----29.83- 72.7-----
2024-06-12 11:48 am NW 15.0 20.0----29.83-------
2024-06-12 11:42 am NW 14.0 20.0----29.83-------
2024-06-12 11:36 am NW 15.0 20.0----29.83-------
2024-06-12 11:30 am NW 15.0 20.0----29.83- 72.5-----
2024-06-12 11:24 am NW 15.0 20.0----29.83- 73.6-----
2024-06-12 11:18 am NW 13.0 17.1----29.83-------
2024-06-12 11:12 amWNW 14.0 17.1----29.83-------
2024-06-12 11:06 amWNW 12.0 15.0----29.83-------
2024-06-12 11:00 amWNW 12.0 15.9----29.83+0.03------
2024-06-12 10:54 am NW 9.9 14.0----29.83-------
2024-06-12 10:48 am NW 11.1 15.0----29.82-------
2024-06-12 10:42 am NW 9.9 14.0----29.82-------
2024-06-12 10:36 am NW 12.0 18.1----29.82-------
2024-06-12 10:30 am NW 14.0 18.1----29.82- 74.8-----
2024-06-12 10:24 am NW 13.0 17.1----29.82- 72.7-----
2024-06-12 10:18 am NW 15.0 19.0----29.82-------
2024-06-12 10:12 am NW 15.0 20.0----29.82-------
2024-06-12 10:06 am NW 15.9 20.0----29.82-------
2024-06-12 10:00 am-------29.82+0.03 73.0-----
2024-06-12 09:54 am-------29.82- 76.1-----
2024-06-12 09:48 am NW 11.1 17.1----29.82-------
2024-06-12 09:42 amWNW 13.0 17.1----29.82-------
2024-06-12 09:36 am NW 12.0 15.9----29.82-------
2024-06-12 09:30 am NW 12.0 15.0----29.82- 75.7-----
2024-06-12 09:24 am NW 11.1 15.0----29.82- 75.0-----
2024-06-12 09:18 amWNW 12.0 15.9----29.81-------
2024-06-12 09:12 amWNW 13.0 15.0----29.81-------
2024-06-12 09:06 am NW 9.9 12.0----29.81-------
2024-06-12 09:00 am-------29.81+0.04 75.0-----
2024-06-12 08:54 am-------29.81- 74.5-----
2024-06-12 08:48 am NW 11.1 15.0----29.81- 73.9-----
2024-06-12 08:42 amWNW 12.0 15.9----29.80- 73.6-----
2024-06-12 08:36 am NW 13.0 17.1----29.80- 73.2-----
2024-06-12 08:30 am NW 13.0 15.9----29.80- 72.7-----
2024-06-12 08:24 am NW 13.0 17.1----29.80- 72.1-----
2024-06-12 08:18 am NW 12.0 15.0----29.80- 72.7-----
2024-06-12 08:12 am NW 12.0 15.0----29.80- 72.7-----
2024-06-12 08:06 am NW 12.0 15.9----29.80- 72.1-----
2024-06-12 08:00 am NW 14.0 18.1----29.79+0.04------
2024-06-12 07:54 am NW 13.0 17.1----29.79-------
2024-06-12 07:48 am NW 12.0 15.9----29.79-------
2024-06-12 07:42 am NW 14.0 17.1----29.79-------
2024-06-12 07:36 am NW 12.0 15.0----29.79-------
2024-06-12 07:30 am NW 11.1 14.0----29.79- 71.4-----
2024-06-12 07:24 am NW 11.1 13.0----29.79- 71.6-----
2024-06-12 07:18 amWNW 11.1 14.0----29.79-------
2024-06-12 07:12 am NW 11.1 15.0----29.79-------
2024-06-12 07:06 amWNW 12.0 14.0----29.79-------
2024-06-12 07:00 am NW 12.0 14.0----29.79+0.04 69.4-----
2024-06-12 06:54 am NW 11.1 14.0----29.79- 68.9-----
2024-06-12 06:48 am NW 11.1 14.0----29.79-------
2024-06-12 06:42 amWNW 8.9 11.1----29.79-------
2024-06-12 06:36 amWNW 8.0 9.9----29.79-------
2024-06-12 06:30 amWNW 7.0 8.9----29.78- 69.3-----
2024-06-12 06:24 am W 7.0 12.0----29.78- 67.8-----
2024-06-12 06:18 amWNW 12.0 15.0----29.78- 67.1-----
2024-06-12 06:12 amWNW 12.0 17.1----29.77- 66.6-----
2024-06-12 06:06 amWNW 13.0 15.9----29.77- 66.9-----
2024-06-12 06:00 amWNW 15.0 18.1----29.77+0.02 66.9-----
2024-06-12 05:54 am NW 13.0 15.9----29.77- 66.9-----
2024-06-12 05:48 amWNW 12.0 15.0----29.77- 67.1-----
2024-06-12 05:42 amWNW 13.0 17.1----29.76- 66.9-----
2024-06-12 05:36 amWNW 13.0 17.1----29.76- 67.1-----
2024-06-12 05:30 amWNW 14.0 17.1----29.76- 67.5-----
2024-06-12 05:24 amWNW 13.0 17.1----29.76- 67.6-----
2024-06-12 05:18 am NW 14.0 19.0----29.75- 67.6-----
2024-06-12 05:12 am NW 15.0 20.0----29.75- 67.5-----
2024-06-12 05:06 am NW 14.0 18.1----29.75- 66.7-----
2024-06-12 05:00 am NW 14.0 19.0----29.75+0.00 66.4-----
2024-06-12 04:54 am NW 15.0 20.0----29.75- 66.9-----
2024-06-12 04:48 am NW 13.0 17.1----29.75-------
2024-06-12 04:42 am NW 13.0 17.1----29.75-------
2024-06-12 04:36 am NW 14.0 17.1----29.75-------
2024-06-12 04:30 am NW 14.0 17.1----29.74- 68.9-----
2024-06-12 04:24 am NW 14.0 15.9----29.74- 68.7-----
2024-06-12 04:18 am NW 13.0 18.1----29.74- 68.9-----
2024-06-12 04:12 am NW 12.0 15.9----29.74- 70.2-----
2024-06-12 04:06 am NW 13.0 17.1----29.74- 70.3-----
2024-06-12 04:00 am NW 14.0 18.1----29.74-0.01 70.5-----
2024-06-12 03:54 am NW 14.0 17.1----29.74- 70.5-----
2024-06-12 03:48 amWNW 13.0 15.0----29.74-------
2024-06-12 03:42 amWNW 11.1 15.0----29.75-------
2024-06-12 03:36 amWNW 11.1 14.0----29.75-------
2024-06-12 03:30 am NW 12.0 15.9----29.75- 71.1-----
2024-06-12 03:24 am NW 12.0 15.0----29.74- 72.1-----
2024-06-12 03:18 amWNW 11.1 14.0----29.74-------
2024-06-12 03:12 amWNW 9.9 14.0----29.74-------
2024-06-12 03:06 am NW 9.9 12.0----29.75-------
2024-06-12 03:00 am NW 8.9 12.0----29.75-0.01 73.2-----
2024-06-12 02:54 amWNW 8.0 12.0----29.75- 72.3-----
2024-06-12 02:48 am NW 9.9 13.0----29.75-------
2024-06-12 02:42 am NW 9.9 14.0----29.75-------
2024-06-12 02:36 am NW 11.1 14.0----29.75-------
2024-06-12 02:30 am NW 9.9 14.0----29.75- 74.5-----
2024-06-12 02:24 amWNW 8.9 14.0----29.75- 76.3-----
2024-06-12 02:18 amWNW 12.0 14.0----29.75- 77.0-----
2024-06-12 02:12 amWNW 12.0 14.0----29.75- 77.0-----
2024-06-12 02:06 amWNW 11.1 13.0----29.75- 75.9-----
2024-06-12 02:00 amWNW 11.1 14.0----29.75-0.01------
2024-06-12 01:54 am NW 8.9 14.0----29.75-------
2024-06-12 01:48 am NW 8.9 12.0----29.75-------
2024-06-12 01:42 amWNW 9.9 12.0----29.75-------
2024-06-12 01:36 amWNW 8.9 11.1----29.75-------
2024-06-12 01:30 am NW 8.9 12.0----29.75- 73.2-----
2024-06-12 01:24 am NW 9.9 13.0----29.75- 74.7-----
2024-06-12 01:18 am NW 9.9 12.0----29.75- 74.8-----
2024-06-12 01:12 amWNW 8.9 12.0----29.75- 73.4-----
2024-06-12 01:06 amWNW 9.9 12.0----29.75- 73.0-----
2024-06-12 01:00 amWNW 9.9 13.0----29.75+0.00------
2024-06-12 12:54 amWNW 9.9 14.0----29.75-------
2024-06-12 12:48 amWNW 8.9 12.0----29.75- 74.7-----
2024-06-12 12:42 amWNW 8.9 12.0----29.75- 74.8-----
2024-06-12 12:36 amWNW 11.1 14.0----29.75- 76.3-----
2024-06-12 12:30 amWNW 9.9 12.0----29.75- 75.7-----
2024-06-12 12:24 amWNW 11.1 13.0----29.75- 76.1-----
2024-06-12 12:18 amWNW 11.1 13.0----29.76- 76.8-----
2024-06-12 12:12 amWNW 11.1 13.0----29.76- 76.1-----
2024-06-12 12:06 amWNW 11.1 13.0----29.76- 75.9-----
2024-06-12 12:00 amWNW 11.1 13.0----29.76+0.00 74.5-----
2024-06-11 11:54 pmWNW 9.9 13.0----29.76- 74.1-----